Location: Grasslands National Park East Block
(49.0708°N, 106.5295°W)
Time: 07:37:10
(UTC-06:00)

SR - Pass Details

Date: 27 October 2019
Orbit: 574 x 882 km, 66.7° (Epoch: 18 November)

Event Time Altitude Azimuth Distance (km) Brightness Sun altitude
Exits shadow 05:19:30 17° 333° (NNW) 2,064 ? -24.4°
Maximum altitude 05:24:00 56° 48° (NE) 1,039 ? -23.7°
Drops below altitude 10° 05:29:49 10° 127° (SE) 2,523 ? -22.7°
Sets 05:32:20 0° 131° (SE) 3,440 ? -22.3°
